Regional Weather Roundup
Issued by NWS

Home | Current Version | Previous Version | Graphics & Text | Print | Product List | Glossary On
Versions: 1 2 3 4 5 6 7 8 9 10 11 12 13 14 15 16 17 18 19 20 21 22 23 24 25 26 27 28 29 30 31 32 33 34 35 36 37 38 39 40 41 42 43 44 45 46 47 48 49 50
000
ASUS43 KBIS 011110
RWRND

NORTH DAKOTA REGIONAL WEATHER ROUNDUP
NATIONAL WEATHER SERVICE BISMARCK ND
600 AM CDT WED JUL 01 2015

NOTE: "FAIR" INDICATES FEW OR NO CLOUDS BELOW 12,000 FEET WITH NO
SIGNIFICANT WEATHER AND/OR OBSTRUCTIONS TO VISIBILITY.


NDZ001>003-009>011-017-011200-
NORTHWEST NORTH DAKOTA

CITY           SKY/WX    TMP DP  RH WIND       PRES   REMARKS
WILLISTON      FOG       59  58  96 N10       29.96S VSB 1/2
MINOT          FOG       62  61  96 NW6       29.93R VSB 1/4
MINOT AFB      FOG       63  63 100 CALM      29.93R VSB 1/2
$$

NDZ018>021-031>035-040>046-011200-
SOUTHWEST NORTH DAKOTA

CITY           SKY/WX    TMP DP  RH WIND       PRES   REMARKS
BISMARCK       CLOUDY    63  61  93 NE5       29.92R FOG
DICKINSON      CLOUDY    62  60  93 E6        29.92R FOG
GARRISON         N/A     60  59  96 NE5       29.93S
HETTINGER ARPT FOG       61  59  93 E5        29.92R VSB 1/4
$$

NDZ004>008-012>016-024-026-027-054-011200-
NORTHEAST NORTH DAKOTA

CITY           SKY/WX    TMP DP  RH WIND       PRES   REMARKS
GRAND FORKS    PTCLDY    58  54  86 CALM      29.92S
GRND FRKS AFB  CLEAR     54  53  98 N3        29.93S FOG
DEVILS LAKE    PTCLDY    55  52  88 CALM      29.94S
$$

NDZ022-023-025-028>030-036>039-047>053-011200-
SOUTHEAST NORTH DAKOTA

CITY           SKY/WX    TMP DP  RH WIND       PRES   REMARKS
FARGO          FAIR      63  59  87 CALM      29.93R
JAMESTOWN      CLOUDY    63  61  93 SE6       29.93R
$$



USA.gov is the U.S. government's official web portal to all federal, state and local government web resources and services.